SCP
-0 0 0 -0 0 0 0 0 0 0 0 -0 0 -0 0 -0 0 0 0 0 -0 -0 -0 -0 -0 -0 -0 -0 0 0 0 0 0 0 0 0 0 0 0 0 -0 0 0
-0 -0 0 0 0 -0 -0 0 0 0 -0 0 -0 -0 -0 0 -0 -0 0 -0 0 -0 -0 -0 -0 -0 -0 -0 0 0 0 0 0 0 0 0 0 0 0 0 0 -0 -0
-0 0 0 -0 0 0 -0 0 0 -0 0 -0 -0 0 0 -0 0 -0 0 0 0 0 -0 -0 -0 -0 -0 -0 -0 -0 0 0 0 0 0 0 0 0 0 -0 -0 -0 -0
-0 -0 -0 0 0 0 0 0 0 0 0 0 0 -0 -0 0 0 0 -0 0 0 0 0 0 -0 0 0 0 0 0 0 0 0 0 -0 0 0 0 0 0 -0 -0 -0
-0 -0 -0 -0 0 0 0 0 0 0 0 0 -0 -0 -0 0 -0 -0 0 -0 -0 0 0 -0 0 0 0 0 0 0 0 0 0 0 0 0 0 0 0 0 0 -0 -0
-0 -0 -0 -0 -0 0 -0 0 -0 0 -0 -0 0 -0 -0 -0 -0 -0 -0 -0 0 0 -0 -0 0 0 0 0 0 0 0 0 0 0 0 0 0 0 0 0 0 0 -0
0 0 0 -0 0 -0 0 0 0 -0 0 0 -0 -0 -0 -0 -0 0 -0 -0 0 -0 0 0 0 0 0 0 0 0 0 0 0 0 0 0 0 0 0 0 0 0 0
0 0 0 -0 0 0 0 0 0 0 0 0 -0 0 -0 -0 -0 -0 -0 -0 -0 -0 0 0 0 0 0 0 0 0 0 0 0 0 0 0 0 0 0 0 0 0 0
0 0 0 0 0 -0 -0 0 0 -0 0 0 -0 -0 -0 0 -0 0 0 -0 0 0 0 0 0 0 0 0 0 0 0 0 0 0 0 0 0 0 0 0 0 0 0
-0 0 0 0 0 0 -0 0 0 0 0 0 0 0 -0 0 0 0 0 0 0 0 0 0 0 0 0 0 0 0 0 0 0 0 0 0 0 0 0 0 0 0 0
-0 -0 -0 0 0 0 -0 -0 0 0 0 0 0 0 0 0 -0 0 0 0 0 0 0 0 0 0 0 0 0 0 0 0 0 0 0 0 0 0 0 0 0 0 0
-0 -0 -0 -0 0 0 0 0 -0 -0 -0 0 0 0 0 0 0 0 0 -0 -0 0 0 0 0 0 0 0 0 0 0 0 0 0 0 0 0 0 0 0 0 0 0
0 -0 -0 -0 0 0 0 0 0 0 -0 -0 0 0 0 0 0 0 0 0 0 0 0 0 0 0 0 0 0 0 0 0 0 0 0 0 0 0 0 0 0 0 0
0 0 -0 -0 0 0 0 0 0 0 -0 -0 -0 -0 0 0 0 0 0 0 0 0 0 0 0 0 0 0 0 0 0 0 0 0 0 0 0 0 0 0 0 0 0
-0 0 0 -0 -0 0 0 0 0 0 0 -0 -0 -0 -0 -0 -0 0 0 0 -0 -0 -0 0 0 0 0 0 0 0 0 0 0 0 0 0 0 0 0 0 0 0 0
0 0 0 0 0 -0 0 0 -0 0 -0 -0 -0 -0 -0 -0 -0 0 0 -0 -0 0 0 0 0 0 0 0 0 0 0 0 0 0 0 0 0 0 0 0 0 0 0
1 0 1 0 0 0 0 0 -0 -0 -0 -0 -0 -0 -0 -0 -0 0 0 0 0 0 0 0 0 1 0 0 0 0 0 0 0 0 0 0 0 0 0 0 0 0 0
1 1 1 1 1 0 0 0 0 0 0 -0 -0 -0 -0 -0 -0 0 0 0 0 0 0 1 0 0 1 1 1 1 0 0 0 0 0 0 0 0 0 0 0 0 0
-0 -0 -0 0 0 0 0 0 0 0 0 0 -0 -0 -0 -0 -0 0 0 0 0 0 0 0 0 0 0 1 1 1 1 0 0 0 0 0 0 0 0 0 0 0 0
-1 -1 -1 -1 -1 -1 -0 -0 0 0 0 0 0 0 0 -0 0 0 0 0 0 0 0 0 0 0 0 1 0 0 0 0 0 0 0 0 0 0 0 0 0 0 0
-1 -2 -2 -2 -2 -1 -1 -1 -0 -0 0 0 0 0 0 1 0 0 0 0 1 1 0 0 0 0 0 0 1 1 1 0 0 0 0 0 1 0 0 0 0 0 0
-1 -1 -2 -3 -3 -1 -1 -1 -1 0 0 1 1 1 1 1 0 0 0 0 0 1 1 1 0 1 2 2 1 0 1 0 0 1 1 0 1 1 0 0 0 0 0
0 -1 -1 -1 -2 -2 -1 -1 -0 0 0 1 1 2 2 2 1 1 0 0 0 1 1 2 1 1 2 3 3 2 2 1 0 1 1 0 0 0 0 0 0 0 0
1 1 1 1 0 -1 0 0 0 0 1 0 1 1 3 3 4 3 3 2 1 1 1 1 2 2 2 3 2 2 2 1 1 0 1 0 0 0 0 0 0 0 0
3 2 3 2 1 1 1 1 0 2 2 1 1 1 2 4 4 2 4 5 3 2 1 1 1 1 1 1 1 1 1 1 0 0 1 0 0 0 0 0 0 0 0
3 3 3 3 3 2 3 1 0 3 4 4 4 4 2 2 3 1 4 6 6 4 3 2 0 0 0 0 0 1 1 0 0 0 1 0 0 0 0 0 0 0 0
Wind_Speed_500mb
3 9 10 3 2 5 4 1 10 9 7 5 4 7 4 1 6 8 5 4 8 12 15 15 13 11 12 12 10 11 8 7 5 3 3 4 4 1 2 5 6 6 8
7 6 5 0 3 7 10 3 2 8 4 4 8 12 7 6 9 12 2 10 12 7 13 17 14 12 11 14 13 9 8 7 5 5 7 7 6 7 6 7 9 8 9
9 3 4 7 3 10 7 6 5 7 16 10 6 6 5 4 11 6 12 5 9 13 7 10 16 15 10 10 8 7 7 7 7 6 6 7 6 7 11 8 9 10 11
21 10 5 2 2 5 2 6 5 2 7 5 2 3 5 7 10 10 8 4 1 2 9 8 6 9 9 11 10 10 9 10 9 9 9 6 8 5 8 10 10 12 13
18 12 12 14 3 2 5 2 2 6 1 5 11 7 5 9 5 8 5 3 7 7 9 10 11 9 4 1 5 8 10 14 15 15 15 13 15 13 12 13 14 12 14
22 14 7 6 4 2 5 12 6 3 2 3 3 5 10 8 5 5 7 12 7 3 3 12 5 9 7 8 2 3 3 7 11 15 15 16 17 18 19 20 21 20 21
22 20 14 10 6 7 9 4 3 5 7 4 13 14 6 8 6 6 10 11 8 7 3 5 7 3 9 1 5 6 4 3 5 7 8 9 11 12 14 17 19 21 21
27 23 20 21 16 8 14 7 11 7 3 11 10 13 16 13 9 7 8 7 7 8 8 6 5 2 6 5 9 5 3 3 3 3 5 5 5 8 10 12 15 17 20
28 29 24 21 19 17 17 4 6 11 4 11 15 6 1 15 18 10 6 10 9 6 5 11 9 7 7 1 9 9 5 5 7 9 11 12 11 9 7 6 8 9 13
32 30 26 22 23 15 16 10 10 12 10 10 11 10 8 2 11 14 13 11 5 8 9 5 4 9 10 12 12 3 11 12 10 10 11 12 13 13 12 12 13 13 11
33 32 29 27 26 24 23 21 19 13 11 13 10 10 7 6 4 1 18 18 11 13 8 7 4 8 4 7 10 3 5 7 5 3 6 11 14 13 11 11 12 15 17
33 42 37 38 32 26 25 18 19 15 20 16 14 12 9 9 8 8 10 14 18 16 14 13 14 14 13 12 15 19 14 9 7 6 9 12 14 13 11 14 17 17 17
39 42 44 45 35 34 30 28 28 21 18 19 25 15 13 11 10 11 11 6 5 8 7 16 18 19 18 18 20 26 24 22 19 18 19 19 20 20 20 21 23 25 27
40 38 47 45 44 37 38 36 28 24 25 24 24 27 18 16 15 14 11 8 7 10 14 15 13 17 18 18 24 26 25 31 29 29 26 25 23 20 21 25 27 28 28
40 44 44 42 47 45 42 40 34 36 31 31 27 27 30 19 20 18 14 12 12 13 13 19 11 20 17 19 19 19 22 28 26 24 25 26 24 24 25 29 34 36 35
50 42 52 48 45 50 51 48 39 37 39 35 31 33 32 25 25 22 19 18 16 15 17 7 9 16 15 15 25 23 18 26 27 24 26 25 25 27 28 30 34 37 38
65 60 52 54 51 53 54 55 50 41 48 44 40 41 43 37 30 27 25 24 22 21 21 20 19 19 32 32 23 30 24 24 22 30 28 25 27 28 29 33 35 35 32
80 75 67 68 57 54 58 60 59 51 53 47 46 48 50 44 45 40 32 33 28 29 28 28 23 23 31 28 29 34 27 24 25 27 29 32 37 35 37 37 37 33 33
87 84 80 79 75 67 66 68 67 65 60 61 56 55 55 54 52 45 47 35 33 39 32 31 27 26 28 26 26 25 29 26 28 34 40 34 29 35 40 39 35 34 32
89 88 85 84 84 80 77 76 77 77 74 71 69 63 60 59 56 52 50 48 45 36 31 30 28 29 31 31 27 23 26 26 24 22 30 24 42 39 44 39 32 32 29
94 88 89 89 89 87 81 88 83 86 82 82 75 74 67 64 60 56 53 52 45 46 34 33 30 31 33 33 31 29 23 24 30 33 29 30 27 32 37 34 34 27 34
96 96 97 97 97 92 87 85 85 86 87 84 83 78 77 66 67 67 59 52 51 48 44 34 36 40 38 35 33 33 30 27 29 27 25 25 29 34 31 27 29 36 31
102 104 102 100 100 102 101 94 90 89 87 89 88 86 82 67 73 72 69 61 63 61 54 54 49 46 37 31 37 35 38 36 31 27 26 24 25 27 23 32 38 41 47
102 103 105 105 104 108 104 102 101 96 98 94 90 90 86 84 78 77 73 72 72 73 64 60 64 51 47 52 46 40 40 41 38 36 28 29 19 23 25 24 36 41 44
93 100 100 101 109 112 110 107 104 106 108 106 100 88 86 87 88 89 80 74 71 68 68 62 67 61 57 49 46 31 28 34 27 29 32 27 20 18 22 28 29 36 36
90 82 89 96 103 108 111 113 109 109 112 114 112 103 94 93 90 92 91 83 80 75 63 64 67 62 68 56 50 48 33 31 29 27 24 23 23 22 24 25 20 28 32
Wind_Direction_500mb
149 229 119 113 332 300 121 26 17 48 50 64 74 49 96 102 133 183 76 61 113 172 180 187 187 186 185 182 168 181 181 189 208 229 222 232 248 294 304 324 330 339 341
208 116 198 5 294 255 336 92 54 21 90 43 92 61 72 84 283 130 162 67 61 114 177 193 188 194 195 198 196 182 177 178 197 232 238 255 271 278 299 308 313 308 317
217 210 169 212 135 297 315 13 276 179 88 131 83 63 108 98 108 133 160 115 23 58 69 170 190 205 203 203 206 199 206 201 216 235 273 271 255 279 289 298 296 305 312
185 225 208 198 129 276 3 192 352 71 128 125 73 63 171 115 124 148 130 107 61 230 89 43 156 185 210 213 218 231 238 242 242 254 254 270 287 275 292 282 281 296 304
210 206 258 195 51 82 78 25 147 312 53 189 181 139 146 104 137 119 66 202 197 173 166 53 36 71 70 171 233 244 245 251 258 262 261 258 257 255 262 279 281 276 277
216 224 244 267 245 258 274 232 147 193 148 231 320 184 154 146 123 108 117 148 108 151 210 17 331 3 47 11 317 278 266 258 267 270 271 268 265 266 269 267 260 262 272
221 226 218 248 218 254 227 199 269 49 188 265 149 132 135 139 142 124 95 101 71 104 76 340 242 134 11 53 53 14 350 316 279 280 287 287 287 285 274 280 284 282 277
217 222 227 225 234 245 283 212 191 175 217 173 195 160 147 155 162 131 108 104 94 94 75 78 87 3 185 325 336 330 332 347 11 354 355 355 338 325 319 307 301 298 290
225 238 232 204 227 197 241 242 187 208 187 191 193 282 259 171 161 155 156 135 134 119 88 91 109 139 108 57 54 53 78 96 91 80 59 39 24 8 351 318 295 289 293
221 226 212 217 211 190 236 219 214 198 194 189 208 230 252 58 68 175 176 192 171 202 158 142 113 135 142 158 178 185 86 99 88 64 43 26 13 6 359 352 342 332 322
220 216 224 224 214 193 224 244 196 196 216 188 201 200 208 216 282 239 202 195 199 212 195 177 195 219 150 209 242 224 120 136 109 62 20 4 2 359 4 8 6 356 348
229 216 219 228 218 211 212 238 218 219 187 215 196 202 191 176 193 205 220 198 221 207 218 220 224 226 236 236 221 243 279 262 260 288 308 325 339 338 332 334 336 334 333
221 229 222 223 221 221 212 218 240 218 221 212 202 199 206 213 216 220 235 235 225 202 229 235 237 239 242 243 252 258 262 257 263 276 291 306 316 321 325 321 319 317 314
222 222 236 230 220 222 217 221 224 223 230 224 219 196 203 220 223 225 223 239 212 213 222 222 230 233 238 240 242 249 254 258 262 269 278 280 290 303 303 304 303 301 303
216 219 224 235 218 216 220 218 218 237 216 235 231 222 208 213 224 226 234 236 242 274 250 214 233 235 225 241 244 245 235 248 263 267 270 274 280 278 287 295 299 296 291
218 219 224 220 220 218 218 223 223 221 232 227 220 240 231 219 229 229 227 234 236 245 263 257 239 226 227 231 256 250 236 244 257 263 266 264 258 267 284 297 300 296 293
219 217 224 230 226 220 220 225 218 220 241 233 224 224 244 223 219 234 233 231 234 237 243 250 250 248 249 250 241 255 235 250 265 272 277 272 267 273 288 298 297 295 288
233 231 227 233 237 229 223 226 228 219 228 231 231 230 242 241 233 220 226 233 232 234 238 244 238 245 261 261 247 242 246 248 262 275 269 275 281 283 292 297 293 290 288
237 237 238 234 239 237 230 231 232 231 223 233 237 238 242 242 242 235 232 230 239 231 239 242 243 249 250 263 255 263 253 265 261 265 272 282 293 290 294 295 297 288 283
235 237 235 238 240 239 237 237 239 236 235 232 238 240 242 243 243 242 232 237 223 227 239 239 251 251 250 251 249 256 268 261 257 263 265 281 292 301 306 300 314 314 301
235 236 239 238 240 240 235 238 238 239 239 236 234 241 241 242 249 245 240 237 238 233 232 242 250 252 250 250 245 255 261 261 266 261 263 276 294 296 301 306 306 294 295
234 233 235 239 239 238 235 234 239 238 241 241 236 235 240 242 244 248 246 239 245 242 244 236 243 248 251 249 253 257 266 269 276 269 259 275 288 295 312 288 295 308 301
233 235 236 238 240 241 240 238 238 239 240 241 240 237 236 233 243 243 244 241 242 244 245 254 247 236 242 250 249 253 255 262 264 258 282 274 276 285 292 298 299 295 294
234 236 239 240 241 243 243 242 241 240 241 242 243 241 235 236 236 242 243 241 239 240 243 247 250 248 247 239 245 258 260 261 266 260 253 260 280 282 286 284 288 293 298
230 235 236 238 241 243 244 243 241 240 241 243 244 239 237 236 235 242 242 244 246 241 242 243 248 242 245 242 247 238 243 251 263 260 253 251 267 278 279 282 291 295 303
234 232 235 239 242 243 242 241 240 239 238 241 243 240 238 237 239 239 242 242 239 244 237 239 247 232 238 239 240 241 238 246 249 265 254 226 259 276 286 286 277 296 306
Wind_Speed_850mb
3 9 10 3 2 5 4 1 10 9 7 5 4 7 4 1 6 8 5 4 8 12 15 15 13 11 12 12 10 11 8 7 5 3 3 4 4 1 2 5 6 6 8
7 6 5 0 3 7 10 3 2 8 4 4 8 12 7 6 9 12 2 10 12 7 13 17 14 12 11 14 13 9 8 7 5 5 7 7 6 7 6 7 9 8 9
9 3 4 7 3 10 7 6 5 7 16 10 6 6 5 4 11 6 12 5 9 13 7 10 16 15 10 10 8 7 7 7 7 6 6 7 6 7 11 8 9 10 11
21 10 5 2 2 5 2 6 5 2 7 5 2 3 5 7 10 10 8 4 1 2 9 8 6 9 9 11 10 10 9 10 9 9 9 6 8 5 8 10 10 12 13
18 12 12 14 3 2 5 2 2 6 1 5 11 7 5 9 5 8 5 3 7 7 9 10 11 9 4 1 5 8 10 14 15 15 15 13 15 13 12 13 14 12 14
22 14 7 6 4 2 5 12 6 3 2 3 3 5 10 8 5 5 7 12 7 3 3 12 5 9 7 8 2 3 3 7 11 15 15 16 17 18 19 20 21 20 21
22 20 14 10 6 7 9 4 3 5 7 4 13 14 6 8 6 6 10 11 8 7 3 5 7 3 9 1 5 6 4 3 5 7 8 9 11 12 14 17 19 21 21
27 23 20 21 16 8 14 7 11 7 3 11 10 13 16 13 9 7 8 7 7 8 8 6 5 2 6 5 9 5 3 3 3 3 5 5 5 8 10 12 15 17 20
28 29 24 21 19 17 17 4 6 11 4 11 15 6 1 15 18 10 6 10 9 6 5 11 9 7 7 1 9 9 5 5 7 9 11 12 11 9 7 6 8 9 13
32 30 26 22 23 15 16 10 10 12 10 10 11 10 8 2 11 14 13 11 5 8 9 5 4 9 10 12 12 3 11 12 10 10 11 12 13 13 12 12 13 13 11
33 32 29 27 26 24 23 21 19 13 11 13 10 10 7 6 4 1 18 18 11 13 8 7 4 8 4 7 10 3 5 7 5 3 6 11 14 13 11 11 12 15 17
33 42 37 38 32 26 25 18 19 15 20 16 14 12 9 9 8 8 10 14 18 16 14 13 14 14 13 12 15 19 14 9 7 6 9 12 14 13 11 14 17 17 17
39 42 44 45 35 34 30 28 28 21 18 19 25 15 13 11 10 11 11 6 5 8 7 16 18 19 18 18 20 26 24 22 19 18 19 19 20 20 20 21 23 25 27
40 38 47 45 44 37 38 36 28 24 25 24 24 27 18 16 15 14 11 8 7 10 14 15 13 17 18 18 24 26 25 31 29 29 26 25 23 20 21 25 27 28 28
40 44 44 42 47 45 42 40 34 36 31 31 27 27 30 19 20 18 14 12 12 13 13 19 11 20 17 19 19 19 22 28 26 24 25 26 24 24 25 29 34 36 35
50 42 52 48 45 50 51 48 39 37 39 35 31 33 32 25 25 22 19 18 16 15 17 7 9 16 15 15 25 23 18 26 27 24 26 25 25 27 28 30 34 37 38
65 60 52 54 51 53 54 55 50 41 48 44 40 41 43 37 30 27 25 24 22 21 21 20 19 19 32 32 23 30 24 24 22 30 28 25 27 28 29 33 35 35 32
80 75 67 68 57 54 58 60 59 51 53 47 46 48 50 44 45 40 32 33 28 29 28 28 23 23 31 28 29 34 27 24 25 27 29 32 37 35 37 37 37 33 33
87 84 80 79 75 67 66 68 67 65 60 61 56 55 55 54 52 45 47 35 33 39 32 31 27 26 28 26 26 25 29 26 28 34 40 34 29 35 40 39 35 34 32
89 88 85 84 84 80 77 76 77 77 74 71 69 63 60 59 56 52 50 48 45 36 31 30 28 29 31 31 27 23 26 26 24 22 30 24 42 39 44 39 32 32 29
94 88 89 89 89 87 81 88 83 86 82 82 75 74 67 64 60 56 53 52 45 46 34 33 30 31 33 33 31 29 23 24 30 33 29 30 27 32 37 34 34 27 34
96 96 97 97 97 92 87 85 85 86 87 84 83 78 77 66 67 67 59 52 51 48 44 34 36 40 38 35 33 33 30 27 29 27 25 25 29 34 31 27 29 36 31
102 104 102 100 100 102 101 94 90 89 87 89 88 86 82 67 73 72 69 61 63 61 54 54 49 46 37 31 37 35 38 36 31 27 26 24 25 27 23 32 38 41 47
102 103 105 105 104 108 104 102 101 96 98 94 90 90 86 84 78 77 73 72 72 73 64 60 64 51 47 52 46 40 40 41 38 36 28 29 19 23 25 24 36 41 44
93 100 100 101 109 112 110 107 104 106 108 106 100 88 86 87 88 89 80 74 71 68 68 62 67 61 57 49 46 31 28 34 27 29 32 27 20 18 22 28 29 36 36
90 82 89 96 103 108 111 113 109 109 112 114 112 103 94 93 90 92 91 83 80 75 63 64 67 62 68 56 50 48 33 31 29 27 24 23 23 22 24 25 20 28 32
Wind_Direction_850mb
149 229 119 113 332 300 121 26 17 48 50 64 74 49 96 102 133 183 76 61 113 172 180 187 187 186 185 182 168 181 181 189 208 229 222 232 248 294 304 324 330 339 341
208 116 198 5 294 255 336 92 54 21 90 43 92 61 72 84 283 130 162 67 61 114 177 193 188 194 195 198 196 182 177 178 197 232 238 255 271 278 299 308 313 308 317
217 210 169 212 135 297 315 13 276 179 88 131 83 63 108 98 108 133 160 115 23 58 69 170 190 205 203 203 206 199 206 201 216 235 273 271 255 279 289 298 296 305 312
185 225 208 198 129 276 3 192 352 71 128 125 73 63 171 115 124 148 130 107 61 230 89 43 156 185 210 213 218 231 238 242 242 254 254 270 287 275 292 282 281 296 304
210 206 258 195 51 82 78 25 147 312 53 189 181 139 146 104 137 119 66 202 197 173 166 53 36 71 70 171 233 244 245 251 258 262 261 258 257 255 262 279 281 276 277
216 224 244 267 245 258 274 232 147 193 148 231 320 184 154 146 123 108 117 148 108 151 210 17 331 3 47 11 317 278 266 258 267 270 271 268 265 266 269 267 260 262 272
221 226 218 248 218 254 227 199 269 49 188 265 149 132 135 139 142 124 95 101 71 104 76 340 242 134 11 53 53 14 350 316 279 280 287 287 287 285 274 280 284 282 277
217 222 227 225 234 245 283 212 191 175 217 173 195 160 147 155 162 131 108 104 94 94 75 78 87 3 185 325 336 330 332 347 11 354 355 355 338 325 319 307 301 298 290
225 238 232 204 227 197 241 242 187 208 187 191 193 282 259 171 161 155 156 135 134 119 88 91 109 139 108 57 54 53 78 96 91 80 59 39 24 8 351 318 295 289 293
221 226 212 217 211 190 236 219 214 198 194 189 208 230 252 58 68 175 176 192 171 202 158 142 113 135 142 158 178 185 86 99 88 64 43 26 13 6 359 352 342 332 322
220 216 224 224 214 193 224 244 196 196 216 188 201 200 208 216 282 239 202 195 199 212 195 177 195 219 150 209 242 224 120 136 109 62 20 4 2 359 4 8 6 356 348
229 216 219 228 218 211 212 238 218 219 187 215 196 202 191 176 193 205 220 198 221 207 218 220 224 226 236 236 221 243 279 262 260 288 308 325 339 338 332 334 336 334 333
221 229 222 223 221 221 212 218 240 218 221 212 202 199 206 213 216 220 235 235 225 202 229 235 237 239 242 243 252 258 262 257 263 276 291 306 316 321 325 321 319 317 314
222 222 236 230 220 222 217 221 224 223 230 224 219 196 203 220 223 225 223 239 212 213 222 222 230 233 238 240 242 249 254 258 262 269 278 280 290 303 303 304 303 301 303
216 219 224 235 218 216 220 218 218 237 216 235 231 222 208 213 224 226 234 236 242 274 250 214 233 235 225 241 244 245 235 248 263 267 270 274 280 278 287 295 299 296 291
218 219 224 220 220 218 218 223 223 221 232 227 220 240 231 219 229 229 227 234 236 245 263 257 239 226 227 231 256 250 236 244 257 263 266 264 258 267 284 297 300 296 293
219 217 224 230 226 220 220 225 218 220 241 233 224 224 244 223 219 234 233 231 234 237 243 250 250 248 249 250 241 255 235 250 265 272 277 272 267 273 288 298 297 295 288
233 231 227 233 237 229 223 226 228 219 228 231 231 230 242 241 233 220 226 233 232 234 238 244 238 245 261 261 247 242 246 248 262 275 269 275 281 283 292 297 293 290 288
237 237 238 234 239 237 230 231 232 231 223 233 237 238 242 242 242 235 232 230 239 231 239 242 243 249 250 263 255 263 253 265 261 265 272 282 293 290 294 295 297 288 283
235 237 235 238 240 239 237 237 239 236 235 232 238 240 242 243 243 242 232 237 223 227 239 239 251 251 250 251 249 256 268 261 257 263 265 281 292 301 306 300 314 314 301
235 236 239 238 240 240 235 238 238 239 239 236 234 241 241 242 249 245 240 237 238 233 232 242 250 252 250 250 245 255 261 261 266 261 263 276 294 296 301 306 306 294 295
234 233 235 239 239 238 235 234 239 238 241 241 236 235 240 242 244 248 246 239 245 242 244 236 243 248 251 249 253 257 266 269 276 269 259 275 288 295 312 288 295 308 301
233 235 236 238 240 241 240 238 238 239 240 241 240 237 236 233 243 243 244 241 242 244 245 254 247 236 242 250 249 253 255 262 264 258 282 274 276 285 292 298 299 295 294
234 236 239 240 241 243 243 242 241 240 241 242 243 241 235 236 236 242 243 241 239 240 243 247 250 248 247 239 245 258 260 261 266 260 253 260 280 282 286 284 288 293 298
230 235 236 238 241 243 244 243 241 240 241 243 244 239 237 236 235 242 242 244 246 241 242 243 248 242 245 242 247 238 243 251 263 260 253 251 267 278 279 282 291 295 303
234 232 235 239 242 243 242 241 240 239 238 241 243 240 238 237 239 239 242 242 239 244 237 239 247 232 238 239 240 241 238 246 249 265 254 226 259 276 286 286 277 296 306